Preview of NWS' New Version of Forecast
This preview is not operational and should not be used for support decisions.
Latest weather observations around

Hot Springs, Memorial Field Airport (KHOT)

Using English Units (Switch to International System of Units)
Date/ Time (CDT) Wind (mph) Vis. (mi) Weather Sky Cond. Temp (°F) Rel. Humidity Wind Chill (°F) Heat Index (°F) Pressure Precip. (in)
Air Dwpt 6 hour Altimeter (inHg) Sea level (inHg) 1 hr 3 hr 6 hr
Max Min
Jun 18 06:53 S 5 10 Clear CLR 77 70     79%   78 30.08 30.06      
Jun 18 05:53 S 5 10 Clear CLR 76 71     85%   77 30.07 30.04      
Jun 18 04:53 SE 3 10 Clear CLR 77 70     79%   78 30.06 30.04      
Jun 18 03:53 S 7 10 Clear CLR 79 71     77%   82 30.05 30.03      
Jun 18 02:53 SSW 5 10 Clear CLR 80 72     76%   84 30.05 30.02      
Jun 18 01:53 SSW 6 10 Clear CLR 81 72     74%   85 30.05 30.02      
Jun 18 00:53 S 9 10 Clear CLR 81 73     77%   86 30.06 30.03      
Jun 17 23:53 3 10 Clear CLR 83 73     72%   89 30.06 30.03      
Jun 17 22:53 SE 10 10 Mostly Clear FEW041 84 73     70%   90 30.05 30.03      
Jun 17 21:53 SE 6 10 Clear CLR 85 72     65%   91 30.04 30.01      
Jun 17 20:53 S 6 10 Clear CLR 87 71     59%   93 30.02 29.99      
Jun 17 19:53 SSE 8 10 Mostly Clear FEW050 89 70     53%   94 30 29.97      
Jun 17 18:53 SSE 9 10 Clear CLR 92 70     49%   98 29.98 29.96      
Jun 17 17:53 SE 13 10 Partly Cloudy FEW055 SCT095 91 69     49%   96 29.99 29.96      
Jun 17 16:53 7 10 Mostly Clear FEW055 94 69     45%   99 30 29.97      
Jun 17 15:53 SE 10 10 Mostly Cloudy BKN095 92 69     47%   97 30.01 29.99      
Jun 17 14:53 S 9 10 Mostly Cloudy SCT055 BKN080 BKN100 91 69     49%   96 30.03 30      
Jun 17 13:53 SE 8 10 Mostly Clear FEW070 92 70     49%   98 30.04 30.01      
Jun 17 12:53 SSE 8 10 Clear CLR 91 69     49%   96 30.05 30.02      
Jun 17 11:53 SE 6 10 Clear CLR 89 69     52%   94 30.06 30.03      
Jun 17 10:53 3 10 Mostly Clear FEW040 88 70     55%   93 30.07 30.04      
Jun 17 09:53 Calm 10 Clear CLR 85 74     70%   92 30.06 30.03      
Jun 17 08:53 SW 6 10 Mostly Clear FEW016 83 74     74%   89 30.06 30.04      
Jun 17 07:53 3 10 Clear CLR 80 74     82%   85 30.06 30.03      
Jun 17 06:53 SE 5 10 Clear CLR 78 74     87%   80 30.04 30.01      
Jun 17 05:53 ESE 3 10 Clear CLR 78 74     87%   80 30.02 29.99      
Jun 17 04:53 Calm 10 Partly Cloudy SCT037 79 74     85%   83 30 29.98      
Jun 17 03:53 SSE 3 10 Clear CLR 79 73     82%   82 29.99 29.97      
Jun 17 02:53 SE 3 10 Mostly Clear FEW038 80 74     82%   85 29.99 29.96      
Jun 17 01:53 3 10 Clear CLR 81 74     79%   86 29.99 29.97      
Jun 17 00:53 SSE 5 10 Clear CLR 82 73     74%   87 29.99 29.96      
Jun 16 23:53 3 10 Clear CLR 84 73     70%   90 29.99 29.96      
Jun 16 22:53 SSE 6 10 Clear CLR 84 73     70%   90 29.99 29.96      
Jun 16 21:53 SE 8 10 Clear CLR 86 73     65%   93 29.97 29.94      
Jun 16 20:53 ESE 8 10 Mostly Clear FEW060 88 72     59%   95 29.94 29.92      
Jun 16 19:53 S 5 10 Mostly Clear FEW060 91 70     50%   97 29.93 29.9      
Jun 16 18:53 S 8 10 Partly Cloudy SCT060 93 70     47%   99 29.92 29.89      
Jun 16 17:53 SSW 8 10 Clear CLR 94 66     40%   97 29.91 29.89      
Jun 16 16:53 SSW 11 10 Clear CLR 94 68     43%   99 29.93 29.9      
Jun 16 15:53 SSE 7 10 Mostly Clear FEW060 93 67     43%   97 29.93 29.91      
Jun 16 14:53 6 10 Clear CLR 94 70     46%   100 29.95 29.92      
Jun 16 13:53 SSE 9 10 Mostly Cloudy SCT055 BKN075 93 70     47%   99 29.96 29.93      
Jun 16 12:53 SSW 6 10 Partly Cloudy SCT055 SCT070 91 70     50%   97 29.97 29.95      
Jun 16 11:53 5 10 Clear CLR 90 70     52%   95 29.99 29.96      
Jun 16 10:53 Calm 10 Clear CLR 87 73     63%   95 30 29.97      
Jun 16 09:53 SW 8 10 Clear CLR 86 72     63%   92 29.99 29.97      
Jun 16 08:53 SSW 6 10 Clear CLR 83 73     72%   89 30.01 29.98      
Jun 16 07:53 Calm 10 Clear CLR 82 73     74%   87 30 29.98      
Jun 16 06:53 Calm 10 Clear CLR 79 73     82%   82 29.99 29.97      
Jun 16 05:53 Calm 10 Clear CLR 76 72     88%   77 29.98 29.96      
Jun 16 04:53 Calm 10 Clear CLR 77 72     84%   78 29.97 29.95      
Jun 16 03:53 SE 3 10 Partly Cloudy SCT060 80 72     76%   84 29.96 29.93      
Jun 16 02:53 ESE 3 10 Clear CLR 81 72     74%   85 29.95 29.93      
Jun 16 01:53 SE 5 10 Clear CLR 82 73     74%   87 29.95 29.93      
Jun 16 00:53 S 6 10 Clear CLR 82 72     72%   87 29.95 29.93      
Jun 15 23:53 3 10 Clear CLR 83 72     70%   88 29.95 29.93      
Jun 15 22:53 SE 3 10 Clear CLR 84 72     67%   90 29.96 29.93      
Jun 15 21:53 SSE 5 10 Clear CLR 86 71     61%   92 29.94 29.92      
Jun 15 20:53 SE 5 10 Clear CLR 87 70     57%   92 29.92 29.89      
Jun 15 19:53 SSE 5 10 Clear CLR 90 69     50%   95 29.91 29.88      
Jun 15 18:53 SSW 6 10 Clear CLR 92 69     47%   97 29.89 29.87      
Jun 15 17:53 S 8 10 Clear CLR 92 67     44%   95 29.9 29.87      
Jun 15 16:53 SSE 6 10 Mostly Clear FEW055 93 69     46%   98 29.91 29.88      
Jun 15 15:53 SSW 7 10 Clear CLR 90 70     52%   95 29.93 29.91      
Jun 15 14:53 S 8 10 Clear CLR 93 70     47%   99 29.94 29.92      
Jun 15 13:53 7 10 Partly Cloudy SCT055 92 69     47%   97 29.96 29.93      
Jun 15 12:53 3 10 Partly Cloudy SCT049 SCT060 91 70     50%   97 29.98 29.95      
Jun 15 11:53 WNW 6 10 Clear CLR 90 73     58%   98 29.99 29.97      
Jun 15 10:53 Calm 10 Clear CLR 88 72     59%   95 30 29.98      
Jun 15 09:53 SW 3 10 Clear CLR 85 72     65%   91 30 29.98      
Jun 15 08:53 3 10 Clear CLR 83 73     72%   89 30.01 29.98      
Jun 15 07:53 Calm 10 Clear CLR 80 74     82%   85 30.01 29.98      
May 15 01:53 WNW 3 10 Clear CLR 73 66     79%   74 29.96 29.93      
May 14 12:53 S 7 10 Clear CLR 88 68     52%   92 30 29.98      
May 14 11:53 SSW 8 10 Clear CLR 87 68     53%   91 30.02 30      
May 13 06:53 Calm 10 Clear CLR 68 65     90%     30.07 30.05      
May 13 00:53 SSE 3 10 Clear CLR 76 67     74%   77 30.02 29.99      
May 12 02:53 SW 11 10 Clear CLR 75 66     74%   76 29.97 29.95      
May 12 00:53 S 7 10 Clear CLR 77 64     64%   77 29.97 29.95      
May 11 14:53 SW 10 10 Clear CLR 87 60     40%   87 29.97 29.94      
Jun 11 21:53 SE 8 10 Clear   82 72     72%   87 29.98 29.96      
Jun 10 21:53 ESE 3 10 Clear CLR 76 63     64%   76 29.95 29.93      
Jun 10 10:53 S 10 10 Clear CLR 80 62     54%   81 30 29.98      
Jun 08 18:53 NE 9 10 Clear   80 54     41%   80 29.92 29.9      
Jun 08 13:53   10 Clear CLR 83 55     38%   82 29.99 29.98      
Jun 08 07:53 Calm 10 Clear CLR 64 59     84%     30.03 30.02      
Jun 06 10:53 ENE 10 10 Mostly Clear FEW033 83 71     67%   88 29.85 29.83      
Jun 06 01:07 Calm 10 Partly Cloudy SCT016 70 69     97%     29.81        
Notice The following observation data may not be complete
Jun 05 15:38   10 Mostly Clear FEW006          %